This is the latest recevied weather packets stored in our database for station/object DO1SC. If no packets are shown the sender has not sent any weather packets the latest 10 day(s).
| Time | Temp. | Humidity | Pressure | Rain* | Wind** | Luminosity | Snow |
|---|---|---|---|---|---|---|---|
| 1777656321 | 18.33° C | 41% | 1026.7 hPa | - | - | 26 W/m² | - |
| 1777655732 | 19.44° C | 39% | 1026.7 hPa | - | - | 44 W/m² | - |
| 1777655127 | 19.44° C | 37% | 1026.7 hPa | - | - | 52 W/m² | - |
| 1777654536 | 19.44° C | 35% | 1026.7 hPa | - | - | 58 W/m² | - |
| 1777653930 | 19.44° C | 37% | 1026.9 hPa | - | - | 65 W/m² | - |
| 1777653319 | 19.44° C | 36% | 1026.9 hPa | - | - | 75 W/m² | - |
| 1777652729 | 19.44° C | 36% | 1027.1 hPa | - | - | 87 W/m² | - |
| 1777652124 | 19.44° C | 36% | 1027.1 hPa | - | - | 110 W/m² | - |
| 1777651532 | 19.44° C | 36% | 1027.2 hPa | - | - | 155 W/m² | - |
| 1777650924 | 18.89° C | 36% | 1027.3 hPa | - | - | 198 W/m² | - |
| 1777650334 | 18.89° C | 36% | 1027.3 hPa | - | - | 41 W/m² | - |
| 1777649725 | 19.44° C | 36% | 1027.4 hPa | - | - | 41 W/m² | - |
| 1777649117 | 19.44° C | 36% | 1027.4 hPa | - | - | 42 W/m² | - |
| 1777648529 | 18.89° C | 37% | 1027.6 hPa | - | - | 275 W/m² | - |
| 1777647920 | 18.89° C | 35% | 1027.8 hPa | - | - | 359 W/m² | - |
| 1777647335 | 18.89° C | 36% | 1027.8 hPa | - | - | 360 W/m² | - |
| 1777646723 | 18.89° C | 37% | 1027.8 hPa | - | - | 238 W/m² | - |
| 1777646135 | 18.89° C | 35% | 1027.9 hPa | - | - | 433 W/m² | - |
| 1777645526 | 18.33° C | 35% | 1027.9 hPa | - | - | 464 W/m² | - |
| 1777644918 | 18.33° C | 35% | 1027.9 hPa | - | - | 489 W/m² | - |
| 1777644329 | 18.33° C | 35% | 1028.2 hPa | - | - | 511 W/m² | - |
| 1777643721 | 18.33° C | 36% | 1028.2 hPa | - | - | 531 W/m² | - |
| 1777643133 | 18.33° C | 37% | 1028.4 hPa | - | - | 550 W/m² | - |
| 1777642524 | 18.33° C | 36% | 1028.4 hPa | - | - | 567 W/m² | - |
| 1777641939 | 18.33° C | 38% | 1028.5 hPa | - | - | 584 W/m² | - |
* Rain since midnight (hover to see other rain measurements)
** Current wind speed in m/s (hover to see current wind gust speed)